[[{"header":{"parameterUnit":"m.s-1","parameterCategory":1,"la1":30.2991,"la2":30.254,"lo1":-89.0895,"lo2":-89.0444,"dy":0.0017,"dx":0.0017,"nx":28,"ny":28,"refTime":"2023-07-17T21:00:00:Z","depth":0,"parameterNumber":2,"parameterNumberName":"U-component_of_WINDS"},"data":[0,0,0,0,0,0,0,0,0,0,0,0,0,0,0,0,0,0,0,0,0,0,0,0,0,0,0,0,0,0,0,0,0,0,0,0,0,0,0,0,0,0,0,0,0,0,0,0,0,0,0,0,0,0,0,0,0,0,0.8936,0.8934,0,0.881,0.8808,0.8807,0.8664,0.8662,0.866,0.8658,0.8527,0.8526,0.8524,0,0,0,0,0,0,0,0,0,0,0,0,0,0.9054,0.9053,0.8936,0.8934,0.8933,0.881,0.8808,0.8806,0.8665,0.8662,0.866,0.8657,0.8528,0.8526,0.8524,0,0,0,0,0,0,0,0,0,0,0,0,0,0.8973,0.9052,0.8936,0.8847,0.8838,0.881,0.8808,0.8806,0.8665,0.8662,0.8659,0.8656,0.8528,0.8526,0.8524,0.8573,0,0,0.8517,0.8516,0,0,0,0,0,0,0,0,0.8978,0.8969,0.8862,0.8853,0.8843,0.875,0.8801,0.8728,0.8666,0.8731,0.8658,0.8655,0.8604,0.8595,0.8578,0.8566,0.8561,0.8517,0.8515,0.8514,0.8514,0,0,0,0,0,0,0,0.8984,0.8973,0.8886,0.8861,0.8849,0.8814,0.8799,0.8787,0.8686,0.8725,0.8714,0.8702,0.8598,0.8581,0.8574,0.8559,0.8517,0.8515,0.8513,0.8512,0.8583,0.8586,0,0,0,0,0,0,0.9003,0.8979,0.889,0.8882,0.8904,0.8814,0.8797,0.8783,0.8686,0.8668,0.8704,0.8695,0.8586,0.8577,0.8569,0.8621,0.8514,0.8512,0.8511,0.858,0.8584,0.8587,0,0,0,0,0,0,0.9006,0.8996,0.8895,0.8928,0.8912,0.8815,0.88,0.8782,0.8765,0.8671,0.8652,0.8705,0.8583,0.8572,0.8573,0.8615,0.8511,0.8509,0.8576,0.8581,0.8585,0.8726,0,0,0,0,0,0,0.901,0.8998,0.9016,0.8929,0.8911,0.8902,0.8803,0.8782,0.8761,0.8748,0.8667,0.865,0.858,0.8578,0.8571,0.861,0.8507,0.8572,0.8578,0.8584,0.8717,0.8735,0.875,0,0,0,0,0,0.9014,0.9059,0.9017,0.9007,0.8931,0.8905,0.8894,0.8813,0.8765,0.8782,0.8722,0.8653,0.8611,0.8579,0.857,0.8609,0.8569,0.8576,0.8583,0.871,0.8731,0.875,0,0,0,0,0,0,0.9152,0.9046,0.8998,0.9016,0.8971,0.8881,0.89,0.8839,0.8805,0.8794,0.8695,0.8678,0.8691,0.8649,0.8616,0.8652,0.858,0.8586,0.8679,0.8699,0.8715,0.8725,0.8505,0,0,0,0,0,0.9185,0.9173,0.908,0.9105,0.9085,0.8997,0.8982,0.8924,0.8873,0.8852,0.8792,0.8745,0.8721,0.8707,0.868,0.871,0.8691,0.8732,0.8749,0.8763,0.877,0.8785,0.8802,0.8611,0.8611,0.8611,0,0,0.9251,0.9192,0.919,0.9132,0.9089,0.908,0.8981,0.8974,0.8966,0.8851,0.8849,0.8804,0.8744,0.8761,0.8765,0.8726,0.8818,0.8772,0.8784,0.8783,0.8794,0.8812,0.8828,0.8616,0.8615,0.8614,0,0,0.9368,0.9322,0.9339,0.9299,0.9237,0.9178,0.9183,0.9102,0.9068,0.9064,0.8979,0.8967,0.8928,0.8889,0.8865,0.897,0.8906,0.8964,0.9051,0.9066,0.9081,0.9094,0.9134,0.9149,0.8971,0.8971,0.8971,0,0.9459,0.9441,0.9355,0.9354,0.9331,0.9228,0.9244,0.921,0.9142,0.9129,0.9087,0.9037,0.8989,0.8996,0.9023,0.9005,0.9008,0.8973,0.9086,0.9098,0.9109,0.9146,0.9161,0.8979,0.8978,0.8977,0.8976,0,0.9557,0.9546,0.9567,0.9506,0.9485,0.9493,0.9408,0.9398,0.9342,0.9288,0.9287,0.9227,0.9186,0.9183,0.9128,0.9184,0.9162,0.9105,0.9031,0.9137,0.9169,0.9182,0.8989,0.8987,0.8984,0.8983,0,0,0.9757,0.9649,0.9658,0.963,0.9555,0.9545,0.9549,0.951,0.9504,0.9461,0.9463,0.9433,0.938,0.9352,0.9292,0.9306,0.9395,0.9246,0.9243,0.9278,0.9455,0.95,0.9518,0.9352,0.9354,0.9356,0.9461,0,0.9862,0.9863,0.9786,0.9809,0.9798,0.9701,0.9704,0.9659,0.9609,0.9593,0.9537,0.9518,0.9449,0.9432,0.9441,0.9383,0.943,0.9374,0.9353,0.9354,0.9373,0.9534,0.9581,0.9683,0.9473,0.9475,0.9476,0,0.9984,0.995,0.9973,0.9899,0.9891,0.9896,0.9856,0.9841,0.9788,0.9751,0.9722,0.9653,0.9652,0.9582,0.958,0.9544,0.9531,0.9501,0.9503,0.9499,0.9423,0.9536,0.9713,0.973,0.9495,0.9494,0.9492,0,1.013,1.009,1.0098,1.0077,0.999,0.9996,0.996,0.9904,0.9887,0.9851,0.9839,0.9804,0.9785,0.976,0.9684,0.964,0.9692,0.9615,0.9662,0.9664,0.9678,0.9678,0.9857,0.9668,0.9667,0.9667,0.9667,0,1.0256,1.0274,1.0163,1.0169,1.0186,1.0098,1.0118,1.0072,1.0023,1.0019,0.9931,0.9929,0.9828,0.9814,0.9755,0.9764,0.9755,0.9726,0.971,0.9735,0.9739,0.9725,0.9717,0.9671,0.967,0.9669,0.9669,0,1.0423,1.0349,1.0352,1.0271,1.0251,1.0268,1.0197,1.0199,1.0145,1.014,1.0134,1.0048,1.0027,0.9949,0.9909,0.9869,0.9898,0.9866,0.9917,0.9907,0.9959,0.9956,1.0137,1.0157,0.9954,0.9956,0.9957,0,1.0509,1.0521,1.0441,1.0432,1.0401,1.0387,1.037,1.0283,1.0268,1.021,1.022,1.0193,1.0166,1.0138,1.0072,1.0042,1.001,1.0075,1.0004,1.0029,1.0013,1.0014,1.0015,1.0091,1.0094,1.0096,1.0097,0,1.067,1.0634,1.0612,1.0579,1.0561,1.053,1.0494,1.0491,1.0395,1.0383,1.0362,1.0342,1.0302,1.0277,1.0236,1.0198,1.0133,1.012,1.013,1.0156,1.0185,1.0172,0.996,1.0117,1.0115,1.0113,1.0112,1.0112,1.08,1.0807,1.0753,1.0732,1.0697,1.0666,1.0664,1.061,1.0591,1.0553,1.0503,1.0489,1.0436,1.0375,1.0343,1.033,1.0294,1.0307,1.0311,1.0316,1.0329,1.0187,1.0322,1.0322,1.0321,1.032,1.032,0,1.0959,1.092,1.0902,1.0855,1.084,1.0779,1.0737,1.0728,1.0717,1.0674,1.0651,1.0627,1.0603,1.0536,1.0505,1.0508,1.0477,1.0503,1.0502,1.0495,1.0362,1.0358,1.0528,1.0528,1.0528,1.0528,1.0528,1.0528,1.104,1.1049,1.1007,1.0998,1.0958,1.0944,1.0925,1.0897,1.0862,1.0841,1.082,1.0777,1.0725,1.0689,1.0665,1.0645,1.0639,1.0675,1.0647,1.0524,1.0504,1.0485,1.0481,1.0674,1.0674,1.078,1.0781,1.0782]},{"header":{"parameterUnit":"m.s-1","parameterCategory":1,"la1":30.2991,"la2":30.254,"lo1":-89.0895,"lo2":-89.0444,"dy":0.0017,"dx":0.0017,"nx":28,"ny":28,"refTime":"2023-07-17T21:00:00:Z","depth":0,"parameterNumber":3,"parameterNumberName":"V-component_of_WINDS"},"data":[0,0,0,0,0,0,0,0,0,0,0,0,0,0,0,0,0,0,0,0,0,0,0,0,0,0,0,0,0,0,0,0,0,0,0,0,0,0,0,0,0,0,0,0,0,0,0,0,0,0,0,0,0,0,0,0,0,0,-0.5076,-0.5075,0,-0.4996,-0.4995,-0.4994,-0.4937,-0.4936,-0.4936,-0.4936,-0.4848,-0.4846,-0.4844,0,0,0,0,0,0,0,0,0,0,0,0,0,-0.5175,-0.5174,-0.5076,-0.5075,-0.5074,-0.4996,-0.4995,-0.4994,-0.4937,-0.4936,-0.4936,-0.4935,-0.4848,-0.4846,-0.4844,0,0,0,0,0,0,0,0,0,0,0,0,0,-0.5117,-0.5173,-0.5076,-0.5036,-0.5032,-0.4996,-0.4995,-0.4993,-0.4937,-0.4936,-0.4936,-0.4935,-0.4849,-0.4846,-0.4843,-0.4839,0,0,-0.4834,-0.4833,0,0,0,0,0,0,0,0,-0.512,-0.5114,-0.5043,-0.5039,-0.5034,-0.4976,-0.4997,-0.4941,-0.4937,-0.4973,-0.4936,-0.4935,-0.489,-0.4884,-0.487,-0.4835,-0.4831,-0.4834,-0.4832,-0.4831,-0.483,0,0,0,0,0,0,0,-0.5125,-0.5117,-0.5044,-0.5042,-0.5037,-0.5021,-0.5012,-0.4987,-0.4936,-0.497,-0.4965,-0.4957,-0.4888,-0.4873,-0.4868,-0.4829,-0.4834,-0.4832,-0.483,-0.4829,-0.4786,-0.4787,0,0,0,0,0,0,-0.5136,-0.512,-0.5047,-0.5042,-0.5077,-0.502,-0.501,-0.4995,-0.4936,-0.4927,-0.4958,-0.4955,-0.4878,-0.4871,-0.4864,-0.4855,-0.4831,-0.4828,-0.4827,-0.4786,-0.4786,-0.4787,0,0,0,0,0,0,-0.5138,-0.513,-0.505,-0.508,-0.5069,-0.5019,-0.5003,-0.4994,-0.4979,-0.4927,-0.4917,-0.4952,-0.4878,-0.4868,-0.4846,-0.4851,-0.4827,-0.4825,-0.4785,-0.4786,-0.4787,-0.4837,0,0,0,0,0,0,-0.5141,-0.5131,-0.5129,-0.508,-0.5067,-0.5034,-0.5003,-0.4993,-0.4975,-0.497,-0.492,-0.4911,-0.4876,-0.4851,-0.4843,-0.4847,-0.4822,-0.4784,-0.4785,-0.4786,-0.4834,-0.4839,-0.4844,0,0,0,0,0,-0.5145,-0.5145,-0.513,-0.5121,-0.5065,-0.5035,-0.5027,-0.4989,-0.4976,-0.4973,-0.494,-0.4912,-0.4853,-0.4849,-0.484,-0.4843,-0.4784,-0.4785,-0.4786,-0.4832,-0.4838,-0.4843,0,0,0,0,0,0,-0.5194,-0.5138,-0.512,-0.5105,-0.5076,-0.5025,-0.5021,-0.4997,-0.4968,-0.4965,-0.4918,-0.4907,-0.4889,-0.4864,-0.4861,-0.4835,-0.4814,-0.4814,-0.4853,-0.4858,-0.4862,-0.4868,-0.482,0,0,0,0,0,-0.5203,-0.5185,-0.5137,-0.5128,-0.5115,-0.5071,-0.5056,-0.503,-0.4996,-0.4983,-0.4948,-0.4915,-0.4888,-0.4872,-0.4845,-0.4831,-0.4819,-0.4829,-0.4833,-0.4837,-0.4837,-0.4828,-0.4832,-0.4792,-0.4792,-0.4791,0,0,-0.5222,-0.5189,-0.518,-0.5137,-0.5111,-0.5092,-0.506,-0.5041,-0.5026,-0.4979,-0.4956,-0.493,-0.489,-0.4872,-0.4862,-0.485,-0.4846,-0.4839,-0.4843,-0.484,-0.483,-0.4833,-0.4837,-0.4792,-0.4792,-0.4792,0,0,-0.5246,-0.522,-0.521,-0.5185,-0.5147,-0.5118,-0.5116,-0.507,-0.5051,-0.5028,-0.4993,-0.4974,-0.4929,-0.4902,-0.4883,-0.4899,-0.4872,-0.4892,-0.4915,-0.4906,-0.4909,-0.4912,-0.4917,-0.492,-0.4892,-0.4892,-0.4892,0,-0.5273,-0.5244,-0.5207,-0.5191,-0.5173,-0.5133,-0.5122,-0.5099,-0.5053,-0.5041,-0.5029,-0.4973,-0.4943,-0.4919,-0.4923,-0.4909,-0.4904,-0.4896,-0.4912,-0.4915,-0.4916,-0.4921,-0.4923,-0.4895,-0.4894,-0.4894,-0.4894,0,-0.5279,-0.526,-0.5257,-0.5216,-0.5198,-0.5184,-0.5144,-0.513,-0.5106,-0.5078,-0.5055,-0.5018,-0.4983,-0.4976,-0.4951,-0.4948,-0.4941,-0.4922,-0.4899,-0.4923,-0.4927,-0.4928,-0.4898,-0.4897,-0.4897,-0.4896,0,0,-0.5329,-0.5271,-0.527,-0.5251,-0.5208,-0.5191,-0.5176,-0.5144,-0.5132,-0.5102,-0.5087,-0.5052,-0.5034,-0.5012,-0.4984,-0.4977,-0.4992,-0.4958,-0.4956,-0.4965,-0.4986,-0.5,-0.5003,-0.4975,-0.4975,-0.4975,-0.4989,0,-0.5346,-0.5318,-0.5285,-0.5268,-0.5249,-0.5212,-0.5198,-0.5169,-0.5143,-0.5122,-0.5093,-0.5069,-0.5047,-0.5033,-0.5025,-0.4992,-0.4995,-0.4991,-0.4959,-0.4958,-0.4969,-0.5004,-0.5019,-0.5034,-0.499,-0.499,-0.499,0,-0.536,-0.5335,-0.5317,-0.5276,-0.5267,-0.5256,-0.5224,-0.5206,-0.5172,-0.5153,-0.513,-0.5101,-0.5082,-0.5064,-0.5035,-0.5033,-0.5018,-0.5,-0.5,-0.4994,-0.4975,-0.4999,-0.5037,-0.5039,-0.4992,-0.4992,-0.4992,0,-0.5398,-0.536,-0.5344,-0.5329,-0.5281,-0.5274,-0.5253,-0.5219,-0.5202,-0.5174,-0.5163,-0.5133,-0.5116,-0.5092,-0.5055,-0.5046,-0.5031,-0.501,-0.5014,-0.5015,-0.5011,-0.5011,-0.5047,-0.5004,-0.5004,-0.5003,-0.5003,0,-0.5419,-0.5409,-0.536,-0.535,-0.5338,-0.53,-0.5289,-0.5264,-0.5234,-0.5218,-0.5183,-0.5168,-0.5121,-0.5101,-0.5072,-0.5053,-0.5045,-0.5029,-0.5021,-0.5031,-0.5033,-0.5019,-0.5017,-0.5004,-0.5004,-0.5004,-0.5004,0,-0.5458,-0.5425,-0.5406,-0.5363,-0.5352,-0.5345,-0.5307,-0.5295,-0.5269,-0.5248,-0.5241,-0.5198,-0.5172,-0.5134,-0.5095,-0.5076,-0.5061,-0.5049,-0.5073,-0.5068,-0.5074,-0.5074,-0.5101,-0.5102,-0.506,-0.506,-0.5061,0,-0.5473,-0.5465,-0.5422,-0.541,-0.5391,-0.5372,-0.5355,-0.5318,-0.5302,-0.5264,-0.5257,-0.5229,-0.5204,-0.5164,-0.5128,-0.5098,-0.5085,-0.5097,-0.508,-0.5091,-0.5084,-0.5085,-0.5083,-0.51,-0.51,-0.5101,-0.5101,0,-0.5503,-0.5487,-0.5466,-0.544,-0.5423,-0.5399,-0.5374,-0.5366,-0.5323,-0.5307,-0.5281,-0.5262,-0.5225,-0.5196,-0.5163,-0.5139,-0.5113,-0.5108,-0.5107,-0.5116,-0.5131,-0.5122,-0.5083,-0.5106,-0.5106,-0.5106,-0.5105,-0.5105,-0.5529,-0.552,-0.549,-0.5468,-0.5446,-0.5424,-0.5411,-0.5384,-0.5363,-0.5331,-0.531,-0.5285,-0.5252,-0.5204,-0.5182,-0.5161,-0.515,-0.5149,-0.5148,-0.5149,-0.5152,-0.5136,-0.5155,-0.5155,-0.5154,-0.5154,-0.5154,0,-0.5556,-0.5535,-0.5516,-0.5483,-0.5466,-0.5446,-0.5418,-0.5404,-0.5384,-0.5356,-0.5333,-0.5304,-0.5277,-0.524,-0.5211,-0.5201,-0.5188,-0.5194,-0.5194,-0.5189,-0.5164,-0.5167,-0.5205,-0.5205,-0.5205,-0.5205,-0.5205,-0.5205,-0.5568,-0.5553,-0.5534,-0.5508,-0.5486,-0.5463,-0.5449,-0.5428,-0.5406,-0.5376,-0.5354,-0.5332,-0.53,-0.5268,-0.5242,-0.5232,-0.5222,-0.5232,-0.5218,-0.5195,-0.519,-0.5186,-0.5189,-0.523,-0.523,-0.5244,-0.5244,-0.5244]}]]